Location: Baggettsville
(36.4767°N, 86.7303°W)
Time: 09:24:43
(UTC+00:00)

N. Korean satellite - Visible Passes

Search period start: 17 September 2021 00:00
Search period end: 27 September 2021 00:00
Orbit: 448 x 499 km, 97.3° (Epoch: 16 September)

Date Brightness Start Highest point End Pass type
(mag) Time Alt. Az. Time Alt. Az. Time Alt. Az.
17 Sep 8.9 10:27:34 10° NE 10:30:34 26° E 10:33:35 10° SSE visible
18 Sep 10.0 10:01:28 10° ENE 10:02:42 11° E 10:03:57 10° ESE visible
19 Sep 6.5 11:04:51 10° N 11:08:22 85° WNW 11:11:55 10° SSW visible
20 Sep 8.2 10:37:19 10° NNE 10:40:37 36° E 10:43:56 10° SSE visible
21 Sep 9.7 10:10:32 10° NE 10:12:46 16° E 10:15:01 10° SE visible
23 Sep 7.5 10:47:08 10° NNE 10:50:36 52° E 10:54:06 10° S visible
24 Sep 9.3 10:19:58 10° NE 10:22:46 21° E 10:25:34 10° SSE visible
26 Sep 6.8 10:56:55 10° NNE 11:00:31 74° ESE 11:04:06 10° S visible
